| time (UTC) | temp F | wind direction | speed MPH | gust MPH | rain 1hr in | rain 24hr in | rain mn in | humidity % | barometer mb |
| 20260906181103 | 66 | 16 | 1.0 | 6.0 | 0.00 | 0.00 | 0.00 | 59 | 1014.1 |
| 20260906175603 | 66 | 5 | 3.0 | 9.0 | 0.00 | 0.00 | 0.00 | 59 | 1014.1 |
| 20260906175104 | 66 | 14 | 2.0 | 7.0 | 0.00 | 0.00 | 0.00 | 59 | 1014.1 |
| 20260906174602 | 66 | 69 | 3.0 | 5.0 | 0.00 | 0.00 | 0.00 | 56 | 1014.2 |
| 20260906174102 | 64 | 71 | 1.0 | 3.0 | 0.00 | 0.00 | 0.00 | 60 | 1014.4 |
| 20260906173102 | 62 | 95 | 2.0 | 7.0 | 0.00 | 0.00 | 0.00 | 59 | 1014.7 |
| 20260906172603 | 62 | 120 | 3.0 | 7.0 | 0.00 | 0.00 | 0.00 | 58 | 1014.9 |
| 20260906171602 | 62 | 110 | 3.0 | 7.0 | 0.00 | 0.00 | 0.00 | 59 | 1014.8 |
| 20260906171102 | 62 | 117 | 4.0 | 9.0 | 0.00 | 0.00 | 0.00 | 59 | 1014.9 |
| 20260906170602 | 61 | 95 | 2.0 | 6.0 | 0.00 | 0.00 | 0.00 | 61 | 1015.1 |
| 20260906165603 | 60 | 100 | 4.0 | 8.0 | 0.00 | 0.00 | 0.00 | 61 | 1015.2 |
| 20260906165102 | 60 | 112 | 3.0 | 7.0 | 0.00 | 0.00 | 0.00 | 61 | 1015.2 |
| 20260906164602 | 60 | 124 | 3.0 | 7.0 | 0.00 | 0.00 | 0.00 | 62 | 1015.3 |
| 20260906164102 | 59 | 122 | 6.0 | 9.0 | 0.00 | 0.00 | 0.00 | 63 | 1015.4 |
| 20260906163602 | 59 | 91 | 6.0 | 10.0 | 0.00 | 0.00 | 0.00 | 62 | 1015.4 |
| 20260906162602 | 58 | 101 | 6.0 | 10.0 | 0.00 | 0.00 | 0.00 | 63 | 1015.4 |
| 20260906162102 | 58 | 107 | 6.0 | 10.0 | 0.00 | 0.00 | 0.00 | 64 | 1015.4 |
| 20260906161103 | 58 | 110 | 6.0 | 10.0 | 0.00 | 0.00 | 0.00 | 64 | 1015.5 |
| 20260906160603 | 58 | 102 | 6.0 | 9.0 | 0.00 | 0.00 | 0.00 | 64 | 1015.6 |
| 20260906155603 | 57 | 99 | 4.0 | 9.0 | 0.00 | 0.00 | 0.00 | 65 | 1015.7 |
| 20260906155102 | 57 | 130 | 5.0 | 10.0 | 0.00 | 0.00 | 0.00 | 65 | 1015.8 |
| 20260906154603 | 57 | 130 | 6.0 | 10.0 | 0.00 | 0.00 | 0.00 | 66 | 1015.9 |
| 20260906154103 | 56 | 124 | 7.0 | 10.0 | 0.00 | 0.00 | 0.00 | 66 | 1016.3 |
| 20260906153603 | 56 | 124 | 7.0 | 10.0 | 0.00 | 0.00 | 0.00 | 67 | 1016.2 |
| 20260906153103 | 56 | 124 | 6.0 | 7.0 | 0.00 | 0.00 | 0.00 | 67 | 1016.2 |
| 20260906152602 | 56 | 107 | 5.0 | 7.0 | 0.00 | 0.00 | 0.00 | 67 | 1016.3 |
| 20260906152102 | 55 | 103 | 3.0 | 6.0 | 0.00 | 0.00 | 0.00 | 68 | 1016.3 |
| 20260906151603 | 55 | 127 | 3.0 | 6.0 | 0.00 | 0.00 | 0.00 | 67 | 1016.3 |
| 20260906151103 | 55 | 131 | 5.0 | 6.0 | 0.00 | 0.00 | 0.00 | 69 | 1016.3 |
| 20260906150602 | 54 | 123 | 5.0 | 6.0 | 0.00 | 0.00 | 0.00 | 69 | 1016.4 |
| 20260906145603 | 53 | 85 | 3.0 | 3.0 | 0.00 | 0.00 | 0.00 | 72 | 1016.6 |
| 20260906145102 | 52 | 85 | 2.0 | 3.0 | 0.00 | 0.00 | 0.00 | 74 | 1016.6 |
| 20260906144603 | 52 | 85 | 2.0 | 3.0 | 0.00 | 0.00 | 0.00 | 75 | 1016.8 |
| 20260906144103 | 51 | 85 | 2.0 | 3.0 | 0.00 | 0.00 | 0.00 | 75 | 1017.0 |
| 20260906143602 | 50 | 54 | 1.0 | 3.0 | 0.00 | 0.00 | 0.00 | 77 | 1017.0 |
| 20260906143102 | 49 | 219 | 0.0 | 0.0 | 0.00 | 0.00 | 0.00 | 81 | 1017.1 |
| 20260906142603 | 48 | 219 | 0.0 | 0.0 | 0.00 | 0.00 | 0.00 | 82 | 1017.3 |
| 20260906142102 | 47 | 219 | 0.0 | 0.0 | 0.00 | 0.00 | 0.00 | 83 | 1017.6 |
| 20260906141102 | 45 | 219 | 2.0 | 3.0 | 0.00 | 0.00 | 0.00 | 84 | 1017.6 |
| 20260906140602 | 44 | 226 | 2.0 | 3.0 | 0.00 | 0.00 | 0.00 | 83 | 1017.4 |
| 20260906135603 | 43 | 228 | 2.0 | 3.0 | 0.00 | 0.00 | 0.00 | 83 | 1017.7 |
| 20260906135103 | 43 | 228 | 2.0 | 3.0 | 0.00 | 0.00 | 0.00 | 83 | 1017.5 |
| 20260906134102 | 42 | 228 | 2.0 | 3.0 | 0.00 | 0.00 | 0.00 | 83 | 1017.5 |
| 20260906133602 | 42 | 228 | 2.0 | 3.0 | 0.00 | 0.00 | 0.00 | 84 | 1017.5 |
| 20260906133102 | 41 | 228 | 2.0 | 3.0 | 0.00 | 0.00 | 0.00 | 84 | 1017.8 |
| 20260906132602 | 41 | 228 | 3.0 | 3.0 | 0.00 | 0.00 | 0.00 | 85 | 1017.8 |
| 20260906132103 | 41 | 232 | 2.0 | 3.0 | 0.00 | 0.00 | 0.00 | 84 | 1017.9 |
| 20260906131602 | 41 | 232 | 2.0 | 3.0 | 0.00 | 0.00 | 0.00 | 84 | 1017.9 |
| 20260906131102 | 41 | 232 | 3.0 | 3.0 | 0.00 | 0.00 | 0.00 | 85 | 1017.7 |
| 20260906125103 | 42 | 233 | 2.0 | 3.0 | 0.00 | 0.00 | 0.00 | 83 | 1017.4 |
| 20260906124603 | 42 | 234 | 2.0 | 3.0 | 0.00 | 0.00 | 0.00 | 83 | 1017.5 |
| 20260906124102 | 42 | 234 | 2.0 | 3.0 | 0.00 | 0.00 | 0.00 | 84 | 1017.6 |
| 20260906123603 | 42 | 234 | 2.0 | 3.0 | 0.00 | 0.00 | 0.00 | 84 | 1017.6 |
| 20260906122103 | 41 | 238 | 2.0 | 2.0 | 0.00 | 0.00 | 0.00 | 85 | 1017.7 |
| 20260906121603 | 41 | 238 | 1.0 | 3.0 | 0.00 | 0.00 | 0.00 | 84 | 1017.8 |
| 20260906120603 | 42 | 238 | 2.0 | 3.0 | 0.00 | 0.00 | 0.00 | 84 | 1017.5 |
| 20260906115602 | 42 | 240 | 1.0 | 2.0 | 0.00 | 0.00 | 0.00 | 84 | 1017.6 |
| 20260906114603 | 42 | 240 | 2.0 | 3.0 | 0.00 | 0.00 | 0.00 | 83 | 1017.4 |
| 20260906114103 | 43 | 240 | 3.0 | 3.0 | 0.00 | 0.00 | 0.00 | 82 | 1017.3 |
| 20260906113603 | 43 | 236 | 2.0 | 3.0 | 0.00 | 0.00 | 0.00 | 82 | 1017.3 |
| 20260906113102 | 43 | 236 | 2.0 | 3.0 | 0.00 | 0.00 | 0.00 | 83 | 1017.4 |
| 20260906112603 | 43 | 236 | 2.0 | 3.0 | 0.00 | 0.00 | 0.00 | 83 | 1017.4 |
| 20260906111602 | 43 | 236 | 2.0 | 3.0 | 0.00 | 0.00 | 0.00 | 82 | 1017.5 |
| 20260906111102 | 44 | 236 | 2.0 | 3.0 | 0.00 | 0.00 | 0.00 | 83 | 1016.4 |
| 20260906110602 | 44 | 279 | 0.0 | 0.0 | 0.00 | 0.00 | 0.00 | 83 | 1016.1 |
| 20260906110103 | 44 | 279 | 0.0 | 0.0 | 0.00 | 0.00 | 0.00 | 82 | 1016.2 |
| 20260906105602 | 44 | 279 | 0.0 | 0.0 | 0.00 | 0.00 | 0.00 | 83 | 1016.2 |
| 20260906105102 | 44 | 279 | 0.0 | 0.0 | 0.00 | 0.00 | 0.00 | 83 | 1016.3 |
| 20260906104602 | 44 | 279 | 0.0 | 0.0 | 0.00 | 0.00 | 0.00 | 84 | 1016.4 |
| 20260906104103 | 43 | 279 | 0.0 | 0.0 | 0.00 | 0.00 | 0.00 | 83 | 1016.6 |
| 20260906103103 | 44 | 279 | 0.0 | 0.0 | 0.00 | 0.00 | 0.00 | 81 | 1016.5 |
| 20260906102602 | 44 | 279 | 0.0 | 0.0 | 0.00 | 0.00 | 0.00 | 81 | 1016.4 |
| 20260906102103 | 45 | 279 | 0.0 | 2.0 | 0.00 | 0.00 | 0.00 | 81 | 1016.3 |
| 20260906101602 | 45 | 279 | 1.0 | 2.0 | 0.00 | 0.00 | 0.00 | 80 | 1016.3 |
| 20260906101103 | 45 | 279 | 2.0 | 3.0 | 0.00 | 0.00 | 0.00 | 79 | 1016.4 |
| 20260906100603 | 46 | 279 | 2.0 | 3.0 | 0.00 | 0.00 | 0.00 | 79 | 1016.6 |
| 20260906095602 | 47 | 279 | 1.0 | 2.0 | 0.00 | 0.00 | 0.00 | 77 | 1016.5 |
| 20260906095103 | 48 | 279 | 2.0 | 3.0 | 0.00 | 0.00 | 0.00 | 74 | 1016.6 |
| 20260906094602 | 49 | 279 | 3.0 | 3.0 | 0.00 | 0.00 | 0.00 | 73 | 1016.4 |
| 20260906094102 | 50 | 279 | 2.0 | 3.0 | 0.00 | 0.00 | 0.00 | 73 | 1016.4 |
| 20260906093602 | 50 | 279 | 2.0 | 3.0 | 0.00 | 0.00 | 0.00 | 73 | 1016.4 |
| 20260906093103 | 50 | 279 | 2.0 | 3.0 | 0.00 | 0.00 | 0.00 | 73 | 1016.4 |
| 20260906092603 | 50 | 279 | 3.0 | 5.0 | 0.00 | 0.00 | 0.00 | 73 | 1016.4 |
| 20260906091603 | 50 | 279 | 3.0 | 6.0 | 0.00 | 0.00 | 0.00 | 73 | 1016.6 |
| 20260906091103 | 50 | 279 | 3.0 | 5.0 | 0.00 | 0.00 | 0.00 | 73 | 1016.7 |
| 20260906090602 | 50 | 279 | 4.0 | 5.0 | 0.00 | 0.00 | 0.00 | 73 | 1016.8 |
| 20260906085603 | 50 | 286 | 3.0 | 5.0 | 0.00 | 0.00 | 0.00 | 73 | 1016.7 |
| 20260906085103 | 51 | 279 | 5.0 | 7.0 | 0.00 | 0.00 | 0.00 | 72 | 1016.8 |
| 20260906084603 | 51 | 276 | 5.0 | 7.0 | 0.00 | 0.00 | 0.00 | 71 | 1016.7 |
| 20260906084103 | 51 | 275 | 6.0 | 7.0 | 0.00 | 0.00 | 0.00 | 70 | 1016.6 |
| 20260906083602 | 52 | 272 | 6.0 | 7.0 | 0.00 | 0.00 | 0.00 | 70 | 1016.4 |
| 20260906083103 | 52 | 272 | 6.0 | 7.0 | 0.00 | 0.00 | 0.00 | 71 | 1016.5 |
| 20260906082602 | 51 | 272 | 8.0 | 9.0 | 0.00 | 0.00 | 0.00 | 72 | 1016.8 |
| 20260906082103 | 50 | 273 | 7.0 | 8.0 | 0.00 | 0.00 | 0.00 | 73 | 1016.8 |
| 20260906081603 | 50 | 275 | 5.0 | 7.0 | 0.00 | 0.00 | 0.00 | 72 | 1016.8 |
| 20260906080603 | 51 | 277 | 2.0 | 5.0 | 0.00 | 0.00 | 0.00 | 72 | 1017.0 |
| 20260906075602 | 51 | 277 | 4.0 | 7.0 | 0.00 | 0.00 | 0.00 | 72 | 1017.3 |
| 20260906075102 | 51 | 273 | 6.0 | 9.0 | 0.00 | 0.00 | 0.00 | 72 | 1017.4 |
| 20260906074103 | 51 | 280 | 7.0 | 10.0 | 0.00 | 0.00 | 0.00 | 72 | 1017.4 |
| 20260906073602 | 51 | 270 | 8.0 | 9.0 | 0.00 | 0.00 | 0.00 | 73 | 1017.4 |
| 20260906073102 | 51 | 275 | 7.0 | 12.0 | 0.00 | 0.00 | 0.00 | 72 | 1017.4 |
| 20260906072603 | 51 | 275 | 8.0 | 12.0 | 0.00 | 0.00 | 0.00 | 73 | 1017.3 |
| 20260906072102 | 51 | 279 | 6.0 | 7.0 | 0.00 | 0.00 | 0.00 | 73 | 1017.3 |
| 20260906071603 | 52 | 279 | 3.0 | 6.0 | 0.00 | 0.00 | 0.00 | 72 | 1017.0 |
| 20260906071104 | 52 | 279 | 3.0 | 3.0 | 0.00 | 0.00 | 0.00 | 72 | 1016.9 |
| 20260906070603 | 52 | 279 | 3.0 | 6.0 | 0.00 | 0.00 | 0.00 | 72 | 1017.1 |
| 20260906065603 | 52 | 279 | 10.0 | 12.0 | 0.00 | 0.00 | 0.00 | 73 | 1017.5 |
| 20260906065102 | 52 | 270 | 9.0 | 12.0 | 0.00 | 0.00 | 0.00 | 72 | 1017.6 |
| 20260906064604 | 52 | 284 | 3.0 | 7.0 | 0.00 | 0.00 | 0.00 | 72 | 1017.5 |
| 20260906064102 | 52 | 288 | 5.0 | 9.0 | 0.00 | 0.00 | 0.00 | 72 | 1017.6 |
| 20260906063604 | 52 | 288 | 6.0 | 9.0 | 0.00 | 0.00 | 0.00 | 72 | 1017.7 |
| 20260906063102 | 52 | 284 | 3.0 | 6.0 | 0.00 | 0.00 | 0.00 | 73 | 1018.0 |
| 20260906062603 | 52 | 319 | 2.0 | 3.0 | 0.00 | 0.00 | 0.00 | 72 | 1017.9 |
| 20260906062103 | 52 | 279 | 1.0 | 2.0 | 0.00 | 0.00 | 0.00 | 72 | 1017.9 |
| 20260906061103 | 52 | 279 | 2.0 | 6.0 | 0.00 | 0.00 | 0.00 | 71 | 1018.2 |
| 20260906060602 | 53 | 281 | 7.0 | 9.0 | 0.00 | 0.00 | 0.00 | 70 | 1018.2 |
| 20260906055603 | 53 | 279 | 3.0 | 5.0 | 0.00 | 0.00 | 0.00 | 71 | 1017.9 |
| 20260906055103 | 52 | 294 | 4.0 | 5.0 | 0.00 | 0.00 | 0.00 | 71 | 1018.0 |
| 20260906054602 | 53 | 300 | 2.0 | 6.0 | 0.00 | 0.00 | 0.00 | 71 | 1018.2 |
| 20260906054103 | 52 | 289 | 6.0 | 12.0 | 0.00 | 0.00 | 0.00 | 72 | 1018.1 |
| 20260906053603 | 52 | 289 | 5.0 | 7.0 | 0.00 | 0.00 | 0.00 | 73 | 1018.2 |
| 20260906053103 | 52 | 288 | 5.0 | 10.0 | 0.00 | 0.00 | 0.00 | 72 | 1018.2 |
| 20260906052603 | 52 | 277 | 7.0 | 9.0 | 0.00 | 0.00 | 0.00 | 72 | 1018.3 |
| 20260906051604 | 52 | 275 | 6.0 | 7.0 | 0.00 | 0.00 | 0.00 | 72 | 1018.4 |
| 20260906051103 | 52 | 280 | 3.0 | 3.0 | 0.00 | 0.00 | 0.00 | 72 | 1018.4 |
| 20260906050603 | 51 | 292 | 2.0 | 3.0 | 0.00 | 0.00 | 0.00 | 72 | 1018.8 |
| 20260906045103 | 51 | 284 | 2.0 | 3.0 | 0.00 | 0.00 | 0.00 | 73 | 1019.0 |
| 20260906044603 | 51 | 293 | 2.0 | 3.0 | 0.00 | 0.00 | 0.00 | 73 | 1019.0 |
| 20260906043603 | 51 | 277 | 2.0 | 3.0 | 0.00 | 0.00 | 0.00 | 73 | 1019.2 |
| 20260906043103 | 51 | 277 | 2.0 | 3.0 | 0.00 | 0.00 | 0.00 | 73 | 1019.2 |
| 20260906042602 | 51 | 277 | 2.0 | 3.0 | 0.00 | 0.00 | 0.00 | 73 | 1019.3 |
| 20260906042102 | 51 | 277 | 2.0 | 3.0 | 0.00 | 0.00 | 0.00 | 73 | 1019.3 |
| 20260906041603 | 51 | 277 | 2.0 | 3.0 | 0.00 | 0.00 | 0.00 | 74 | 1019.3 |
| 20260906041103 | 51 | 277 | 3.0 | 3.0 | 0.00 | 0.00 | 0.00 | 74 | 1019.4 |
| 20260906035603 | 51 | 277 | 2.0 | 6.0 | 0.00 | 0.00 | 0.00 | 75 | 1019.6 |
| 20260906035103 | 51 | 276 | 2.0 | 3.0 | 0.00 | 0.00 | 0.00 | 75 | 1019.5 |
| 20260906034603 | 51 | 277 | 3.0 | 5.0 | 0.00 | 0.00 | 0.00 | 75 | 1019.4 |
| 20260906034102 | 51 | 273 | 4.0 | 6.0 | 0.00 | 0.00 | 0.00 | 75 | 1019.5 |
| 20260906033602 | 51 | 275 | 2.0 | 3.0 | 0.00 | 0.00 | 0.00 | 75 | 1019.5 |
| 20260906033103 | 52 | 273 | 3.0 | 6.0 | 0.00 | 0.00 | 0.00 | 76 | 1019.4 |
| 20260906032603 | 52 | 273 | 5.0 | 6.0 | 0.00 | 0.00 | 0.00 | 75 | 1019.4 |
| 20260906032102 | 52 | 273 | 6.0 | 8.0 | 0.00 | 0.00 | 0.00 | 76 | 1019.3 |
| 20260906031602 | 52 | 274 | 7.0 | 8.0 | 0.00 | 0.00 | 0.00 | 76 | 1019.3 |
| 20260906031103 | 52 | 279 | 5.0 | 8.0 | 0.00 | 0.00 | 0.00 | 76 | 1019.2 |
| 20260906030602 | 52 | 274 | 4.0 | 6.0 | 0.00 | 0.00 | 0.00 | 75 | 1019.2 |
| 20260906025603 | 53 | 277 | 5.0 | 9.0 | 0.00 | 0.00 | 0.00 | 75 | 1019.2 |
| 20260906024604 | 54 | 281 | 3.0 | 5.0 | 0.00 | 0.00 | 0.00 | 74 | 1018.9 |
| 20260906023603 | 54 | 282 | 7.0 | 12.0 | 0.00 | 0.00 | 0.00 | 73 | 1018.9 |
| 20260906022603 | 55 | 282 | 10.0 | 13.0 | 0.00 | 0.00 | 0.00 | 72 | 1018.9 |
| 20260906022103 | 55 | 278 | 10.0 | 12.0 | 0.00 | 0.00 | 0.00 | 72 | 1018.8 |
| 20260906021603 | 55 | 285 | 5.0 | 6.0 | 0.00 | 0.00 | 0.00 | 72 | 1018.8 |
| 20260906021103 | 56 | 286 | 6.0 | 8.0 | 0.00 | 0.00 | 0.00 | 71 | 1019.5 |
| 20260906020602 | 56 | 283 | 6.0 | 9.0 | 0.00 | 0.00 | 0.00 | 70 | 1019.7 |
| 20260906015103 | 58 | 288 | 6.0 | 10.0 | 0.00 | 0.00 | 0.00 | 68 | 1019.5 |
| 20260906014603 | 58 | 286 | 5.0 | 10.0 | 0.00 | 0.00 | 0.00 | 67 | 1019.6 |
| 20260906014103 | 59 | 282 | 7.0 | 12.0 | 0.00 | 0.00 | 0.00 | 66 | 1019.5 |
| 20260906013602 | 59 | 288 | 5.0 | 9.0 | 0.00 | 0.00 | 0.00 | 66 | 1019.4 |
| 20260906013103 | 59 | 292 | 7.0 | 10.0 | 0.00 | 0.00 | 0.00 | 67 | 1019.3 |
| 20260906011602 | 59 | 287 | 12.0 | 15.0 | 0.00 | 0.00 | 0.00 | 67 | 1019.2 |
| 20260906011102 | 59 | 287 | 12.0 | 17.0 | 0.00 | 0.00 | 0.00 | 67 | 1019.3 |
| 20260906010602 | 59 | 283 | 10.0 | 15.0 | 0.00 | 0.00 | 0.00 | 67 | 1019.4 |
| 20260906005603 | 59 | 287 | 10.0 | 20.0 | 0.00 | 0.00 | 0.00 | 67 | 1019.4 |
| 20260906005103 | 60 | 288 | 9.0 | 18.0 | 0.00 | 0.00 | 0.00 | 66 | 1019.4 |
| 20260906004602 | 60 | 287 | 13.0 | 18.0 | 0.00 | 0.00 | 0.00 | 66 | 1019.4 |
| 20260906004103 | 60 | 282 | 13.0 | 21.0 | 0.00 | 0.00 | 0.00 | 66 | 1019.3 |
| 20260906003603 | 60 | 284 | 9.0 | 16.0 | 0.00 | 0.00 | 0.00 | 66 | 1019.2 |
| 20260906003104 | 60 | 293 | 11.0 | 17.0 | 0.00 | 0.00 | 0.00 | 67 | 1019.1 |
| 20260906002602 | 60 | 292 | 10.0 | 16.0 | 0.00 | 0.00 | 0.00 | 67 | 1019.2 |
| 20260906002102 | 60 | 291 | 14.0 | 23.0 | 0.00 | 0.00 | 0.00 | 66 | 1019.2 |
| 20260906001603 | 61 | 290 | 14.0 | 20.0 | 0.00 | 0.00 | 0.00 | 66 | 1018.8 |
| 20260906000603 | 62 | 289 | 13.0 | 25.0 | 0.00 | 0.00 | 0.00 | 63 | 1019.0 |
| 20260905235102 | 63 | 287 | 9.0 | 24.0 | 0.00 | 0.00 | 0.00 | 60 | 1018.8 |
| 20260905234602 | 63 | 288 | 10.0 | 22.0 | 0.00 | 0.00 | 0.00 | 60 | 1018.7 |
| 20260905234102 | 64 | 280 | 13.0 | 22.0 | 0.00 | 0.00 | 0.00 | 57 | 1018.6 |
| 20260905233603 | 64 | 286 | 10.0 | 15.0 | 0.00 | 0.00 | 0.00 | 56 | 1018.6 |
| 20260905233103 | 65 | 290 | 9.0 | 17.0 | 0.00 | 0.00 | 0.00 | 56 | 1018.4 |
| 20260905232603 | 66 | 287 | 9.0 | 15.0 | 0.00 | 0.00 | 0.00 | 54 | 1018.2 |
| 20260905232102 | 67 | 286 | 12.0 | 16.0 | 0.00 | 0.00 | 0.00 | 52 | 1018.0 |
| 20260905231603 | 69 | 299 | 9.0 | 16.0 | 0.00 | 0.00 | 0.00 | 50 | 1017.8 |
| 20260905231103 | 70 | 296 | 5.0 | 9.0 | 0.00 | 0.00 | 0.00 | 49 | 1017.6 |
| 20260905230603 | 70 | 289 | 3.0 | 10.0 | 0.00 | 0.00 | 0.00 | 47 | 1017.5 |
| 20260905225602 | 69 | 356 | 3.0 | 6.0 | 0.00 | 0.00 | 0.00 | 49 | 1017.4 |
| 20260905225103 | 68 | 314 | 2.0 | 7.0 | 0.00 | 0.00 | 0.00 | 49 | 1017.7 |
| 20260905224602 | 68 | 336 | 2.0 | 6.0 | 0.00 | 0.00 | 0.00 | 50 | 1017.8 |
| 20260905223603 | 67 | 345 | 2.0 | 5.0 | 0.00 | 0.00 | 0.00 | 50 | 1017.8 |
| 20260905223102 | 67 | 346 | 2.0 | 5.0 | 0.00 | 0.00 | 0.00 | 49 | 1017.9 |
| 20260905222603 | 67 | 33 | 5.0 | 8.0 | 0.00 | 0.00 | 0.00 | 48 | 1017.9 |
| 20260905222103 | 68 | 58 | 2.0 | 3.0 | 0.00 | 0.00 | 0.00 | 47 | 1017.8 |
| 20260905221602 | 68 | 26 | 3.0 | 6.0 | 0.00 | 0.00 | 0.00 | 50 | 1017.8 |
| 20260905221103 | 67 | 23 | 3.0 | 10.0 | 0.00 | 0.00 | 0.00 | 51 | 1017.8 |
| 20260905220602 | 67 | 59 | 6.0 | 10.0 | 0.00 | 0.00 | 0.00 | 48 | 1017.9 |
| 20260905215603 | 67 | 214 | 3.0 | 7.0 | 0.00 | 0.00 | 0.00 | 48 | 1017.9 |
| 20260905215103 | 67 | 71 | 1.0 | 7.0 | 0.00 | 0.00 | 0.00 | 49 | 1017.8 |
| 20260905214603 | 67 | 52 | 6.0 | 12.0 | 0.00 | 0.00 | 0.00 | 50 | 1017.9 |
| 20260905214103 | 67 | 63 | 6.0 | 10.0 | 0.00 | 0.00 | 0.00 | 50 | 1017.9 |
| 20260905213603 | 67 | 40 | 5.0 | 8.0 | 0.00 | 0.00 | 0.00 | 51 | 1018.0 |
| 20260905213103 | 67 | 68 | 9.0 | 12.0 | 0.00 | 0.00 | 0.00 | 51 | 1018.0 |
| 20260905212603 | 67 | 32 | 5.0 | 10.0 | 0.00 | 0.00 | 0.00 | 52 | 1018.1 |
| 20260905212103 | 67 | 53 | 5.0 | 8.0 | 0.00 | 0.00 | 0.00 | 54 | 1018.1 |
| 20260905211603 | 66 | 43 | 2.0 | 7.0 | 0.00 | 0.00 | 0.00 | 53 | 1018.2 |
| 20260905211103 | 66 | 69 | 4.0 | 14.0 | 0.00 | 0.00 | 0.00 | 52 | 1018.2 |
| 20260905210603 | 66 | 83 | 5.0 | 12.0 | 0.00 | 0.00 | 0.00 | 53 | 1018.2 |
| 20260905210103 | 66 | 70 | 4.0 | 12.0 | 0.00 | 0.00 | 0.00 | 54 | 1018.4 |
| 20260905205103 | 66 | 62 | 6.0 | 15.0 | 0.00 | 0.00 | 0.00 | 55 | 1018.4 |
| 20260905204602 | 66 | 148 | 5.0 | 9.0 | 0.00 | 0.00 | 0.00 | 54 | 1018.4 |
| 20260905204103 | 65 | 118 | 5.0 | 9.0 | 0.00 | 0.00 | 0.00 | 55 | 1018.4 |
| 20260905203603 | 65 | 78 | 8.0 | 12.0 | 0.00 | 0.00 | 0.00 | 56 | 1018.5 |
| 20260905203103 | 65 | 94 | 3.0 | 12.0 | 0.00 | 0.00 | 0.00 | 55 | 1018.5 |
| 20260905202603 | 65 | 132 | 6.0 | 12.0 | 0.00 | 0.00 | 0.00 | 54 | 1018.6 |
| 20260905202102 | 65 | 89 | 10.0 | 12.0 | 0.00 | 0.00 | 0.00 | 55 | 1018.6 |
| 20260905201604 | 64 | 159 | 3.0 | 10.0 | 0.00 | 0.00 | 0.00 | 55 | 1018.8 |
| 20260905201103 | 64 | 114 | 9.0 | 18.0 | 0.00 | 0.00 | 0.00 | 55 | 1018.8 |
| 20260905200603 | 64 | 147 | 6.0 | 12.0 | 0.00 | 0.00 | 0.00 | 56 | 1018.7 |
| 20260905195103 | 64 | 65 | 6.0 | 13.0 | 0.00 | 0.00 | 0.00 | 58 | 1018.8 |
| 20260905194603 | 64 | 67 | 5.0 | 14.0 | 0.00 | 0.00 | 0.00 | 60 | 1018.8 |
| 20260905194103 | 64 | 65 | 9.0 | 15.0 | 0.00 | 0.00 | 0.00 | 61 | 1018.8 |
| 20260905193603 | 64 | 56 | 6.0 | 12.0 | 0.00 | 0.00 | 0.00 | 59 | 1018.8 |
| 20260905193103 | 64 | 71 | 2.0 | 10.0 | 0.00 | 0.00 | 0.00 | 61 | 1018.9 |
| 20260905192602 | 63 | 88 | 4.0 | 12.0 | 0.00 | 0.00 | 0.00 | 58 | 1019.0 |
| 20260905192103 | 63 | 89 | 7.0 | 10.0 | 0.00 | 0.00 | 0.00 | 60 | 1019.0 |
| 20260905191603 | 63 | 67 | 7.0 | 10.0 | 0.00 | 0.00 | 0.00 | 60 | 1018.9 |
| 20260905191103 | 63 | 94 | 4.0 | 10.0 | 0.00 | 0.00 | 0.00 | 60 | 1019.2 |
| 20260905190603 | 63 | 64 | 6.0 | 12.0 | 0.00 | 0.00 | 0.00 | 60 | 1019.3 |
| 20260905190103 | 64 | 53 | 7.0 | 10.0 | 0.00 | 0.00 | 0.00 | 59 | 1019.2 |
| 20260905185602 | 65 | 58 | 3.0 | 7.0 | 0.00 | 0.00 | 0.00 | 61 | 1019.2 |
| 20260905185103 | 63 | 34 | 2.0 | 7.0 | 0.00 | 0.00 | 0.00 | 63 | 1019.5 |
| 20260905184603 | 63 | 45 | 3.0 | 9.0 | 0.00 | 0.00 | 0.00 | 61 | 1019.6 |
| 20260905184103 | 63 | 25 | 3.0 | 6.0 | 0.00 | 0.00 | 0.00 | 63 | 1019.6 |
| 20260905183603 | 62 | 15 | 3.0 | 7.0 | 0.00 | 0.00 | 0.00 | 65 | 1019.7 |
| 20260905183103 | 62 | 85 | 6.0 | 10.0 | 0.00 | 0.00 | 0.00 | 64 | 1019.7 |
| 20260905182103 | 61 | 59 | 2.0 | 7.0 | 0.00 | 0.00 | 0.00 | 65 | 1019.9 |
| 20260905181603 | 61 | 102 | 2.0 | 9.0 | 0.00 | 0.00 | 0.00 | 64 | 1020.1 |